Pegasus Voyager — C6AP3 — position and weather

sailwx.info

Track history (hours):
 
Tides and Currents Weather Stations Pressure Air Temp Water Temp Dewpoint Dewpoint Depression Visibility Wind Speed Wind Dir Waves Ship Positions

Pegasus Voyager

Last reported at 2017-Nov-18 21:29 UTC. Time now 2017-Nov-18 21:46 UTC.
Position N 32°59' W 117°49'.

Length 276 m; draft 9.8 m.

Type: Ship (hazmat cat C). MMSI: 311000111.

Date/timePositionNaut miles runAvg speedWind from/ knotsBaromVisibWave heightAir tempDewpointWater temp
2017-Nov-18 21:29N 32°59' W 117°49'0 0.8
2017-Nov-18 20:56N 32°58' W 117°49'1 1.0
2017-Nov-18 20:26N 32°58' W 117°49'0 0.6
2017-Nov-18 19:56N 32°58' W 117°48'0 0.6
2017-Nov-18 19:26N 32°57' W 117°48'0 0.7
2017-Nov-18 18:56N 32°57' W 117°48'1 1.0
2017-Nov-18 18:08N 32°56' W 117°48'0 1.4
2017-Nov-18 17:56N 32°56' W 117°48'1 1.0
2017-Nov-18 17:26N 32°55' W 117°48'0 0.6
2017-Nov-18 16:50N 32°55' W 117°48'3 0.8
2017-Nov-18 13:26N 32°58' W 117°49'1 1.1
2017-Nov-18 12:56N 32°58' W 117°49'1 1.1
2017-Nov-18 12:26N 32°59' W 117°50'0 0.8
2017-Nov-18 11:57N 32°59' W 117°50'0 0.8
2017-Nov-18 11:30N 32°59' W 117°50'0 1.0
2017-Nov-18 11:00N 32°60' W 117°50'0 0.8
2017-Nov-18 10:30N 33°00' W 117°50'0 0.8
2017-Nov-18 10:00N 33°00' W 117°50'0 0.8
2017-Nov-18 09:30N 33°01' W 117°50'0 0.7
2017-Nov-18 09:00N 33°01' W 117°51'1 1.5
2017-Nov-18 08:30N 33°02' W 117°51'1 2.9
2017-Nov-18 08:00N 33°03' W 117°52'2 3.9
2017-Nov-18 07:30N 33°05' W 117°53'2 4.4
2017-Nov-18 07:00N 33°06' W 117°55'2 4.6
2017-Nov-18 06:30N 33°08' W 117°56'2 4.8
2017-Nov-18 06:00N 33°10' W 117°58'1 1.2
2017-Nov-18 05:30N 33°11' W 117°58'0 0.5
2017-Nov-18 05:00N 33°11' W 117°59'3 5.6
2017-Nov-18 04:29N 33°09' W 118°02'511.4
2017-Nov-18 04:00N 33°07' W 118°08'1011.5
2017-Nov-18 03:06N 33°05' W 118°20'611.9
2017-Nov-18 02:38N 33°08' W 118°26'111.5
2017-Nov-18 02:30N 33°08' W 118°28'811.6
2017-Nov-18 01:48N 33°12' W 118°36'411.8
2017-Nov-18 01:26N 33°14' W 118°41'511.5
2017-Nov-18 01:00N 33°14' W 118°47'612.0
2017-Nov-18 00:30N 33°12' W 118°54'815.6
2017-Nov-18 00:00N 33°08' W 119°02'815.8
2017-Nov-17 23:30N 33°04' W 119°10'815.8
2017-Nov-17 23:00N 33°00' W 119°18'816.4
2017-Nov-17 22:30N 32°60' W 119°28'815.9
2017-Nov-17 22:00N 32°59' W 119°37'815.7
2017-Nov-17 21:30N 33°00' W 119°46'815.1
2017-Nov-17 21:00N 33°02' W 119°55'1714.7
2017-Nov-17 19:49N 33°12' W 120°13'515.0
2017-Nov-17 19:27N 33°16' W 120°17'614.0
2017-Nov-17 19:00N 33°20' W 120°22'4 8.0
2017-Nov-17 18:31N 33°23' W 120°25'714.6
2017-Nov-17 18:01N 33°28' W 120°31'714.6
2017-Nov-17 17:30N 33°34' W 120°37'714.8
2017-Nov-17 17:00N 33°39' W 120°44'510.4
2017-Nov-17 16:30N 33°43' W 120°48'713.8
2017-Nov-17 16:01N 33°48' W 120°53'815.5
2017-Nov-17 15:31N 33°55' W 120°58'816.0
2017-Nov-17 15:00N 34°02' W 121°03'816.0
2017-Nov-17 14:30N 34°09' W 121°08'816.0
2017-Nov-17 14:00N 34°15' W 121°13'815.9
2017-Nov-17 13:30N 34°22' W 121°18'815.8
2017-Nov-17 13:00N 34°29' W 121°23'815.8
2017-Nov-17 12:30N 34°36' W 121°27'815.5
2017-Nov-17 12:00N 34°42' W 121°32'815.6
2017-Nov-17 11:30N 34°49' W 121°37'815.8
2017-Nov-17 11:01N 34°56' W 121°42'815.5
2017-Nov-17 10:30N 35°03' W 121°47'815.3
2017-Nov-17 10:00N 35°09' W 121°52'15314.9
2017-Nov-16 23:45N 37°29' W 123°09'312.7
2017-Nov-16 23:30N 37°32' W 123°09'611.4
2017-Nov-16 23:00N 37°35' W 123°03'611.1
2017-Nov-16 22:30N 37°38' W 122°57'510.9
2017-Nov-16 22:00N 37°41' W 122°51'511.1
2017-Nov-16 21:30N 37°43' W 122°45'4 8.7
2017-Nov-16 21:00N 37°45' W 122°40'611.9
2017-Nov-16 20:31N 37°48' W 122°33'713.4
2017-Nov-16 20:00N 37°51' W 122°26'4 8.1
2017-Nov-16 19:31N 37°55' W 122°25'1 0.2
2017-Nov-16 13:40N 37°56' W 122°25'0 0.0
2017-Nov-16 03:01N 37°56' W 122°25'0 0.0
2017-Nov-16 02:04N 37°56' W 122°25'0 0.0
2017-Nov-16 01:55N 37°56' W 122°25'0 0.0
2017-Nov-16 01:25N 37°56' W 122°25'0 0.0
2017-Nov-15 21:45N 37°56' W 122°25'0 0.0
2017-Nov-15 21:30N 37°56' W 122°25'1 2.7
2017-Nov-15 21:00N 37°54' W 122°25'4 7.5
2017-Nov-15 20:30N 37°51' W 122°25'4 7.2
2017-Nov-15 20:01N 37°49' W 122°29'4 7.8
2017-Nov-15 19:31N 37°47' W 122°34'611.2
2017-Nov-15 19:00N 37°45' W 122°40'5 9.2
2017-Nov-15 18:30N 37°42' W 122°45'4 9.0
2017-Nov-15 18:00N 37°39' W 122°49'4 9.0
2017-Nov-15 17:30N 37°37' W 122°54'5 9.0
2017-Nov-15 17:00N 37°34' W 122°59'5 9.0
2017-Nov-15 16:30N 37°32' W 123°03'4 8.9
2017-Nov-15 16:01N 37°29' W 123°08'4 9.0
2017-Nov-15 15:30N 37°27' W 123°13'4 8.1
2017-Nov-15 15:00N 37°24' W 123°17'3 6.1
2017-Nov-15 14:30N 37°23' W 123°20'53 9.9
2017-Nov-15 09:06N 36°30' W 123°09'1210.3
2017-Nov-15 07:57N 36°19' W 123°03'510.3
2017-Nov-15 07:27N 36°15' W 123°00'1310.2
2017-Nov-15 06:12N 36°03' W 122°53'210.0
2017-Nov-15 05:59N 36°01' W 122°52'4 7.5
2017-Nov-15 05:31N 35°58' W 122°50'3 6.1
2017-Nov-15 05:00N 35°55' W 122°49'611.2
2017-Nov-15 04:30N 35°50' W 122°46'611.0
2017-Nov-15 04:01N 35°45' W 122°43'611.4
2017-Nov-15 03:30N 35°40' W 122°39'610.9
2017-Nov-15 02:59N 35°35' W 122°36'510.9
2017-Nov-15 02:30N 35°31' W 122°32'1610.7
2017-Nov-15 01:01N 35°18' W 122°21'011.5
2017-Nov-15 01:00N 35°18' W 122°21'4 8.5
2017-Nov-15 00:31N 35°15' W 122°17'611.6
2017-Nov-15 00:00N 35°12' W 122°10'1611.6
2017-Nov-14 22:37N 35°05' W 121°53'111.7
2017-Nov-14 22:30N 35°04' W 121°52'611.8
2017-Nov-14 22:00N 35°01' W 121°45'611.7
2017-Nov-14 21:31N 34°58' W 121°39'611.9
2017-Nov-14 21:01N 34°56' W 121°33'712.6
2017-Nov-14 20:29N 34°53' W 121°26'612.5
2017-Nov-14 20:00N 34°49' W 121°19'612.7
2017-Nov-14 19:31N 34°46' W 121°13'612.3
2017-Nov-14 19:00N 34°42' W 121°07'511.1
2017-Nov-14 18:30N 34°38' W 121°02'510.8
2017-Nov-14 18:00N 34°35' W 120°57'5 9.5
2017-Nov-14 17:30N 34°31' W 120°54'611.1
2017-Nov-14 16:59N 34°27' W 120°60'5 9.6
2017-Nov-14 16:28N 34°25' W 121°05'612.4
2017-Nov-14 15:58N 34°22' W 121°11'612.0
2017-Nov-14 15:30N 34°19' W 121°17'511.1
2017-Nov-14 15:00N 34°14' W 121°20'5 9.2
2017-Nov-14 14:31N 34°09' W 121°19'510.9
2017-Nov-14 14:00N 34°07' W 121°13'611.4
2017-Nov-14 13:31N 34°04' W 121°07'611.2
2017-Nov-14 13:01N 34°01' W 121°02'611.3
2017-Nov-14 12:30N 33°58' W 120°56'611.4
2017-Nov-14 12:01N 33°55' W 120°50'611.1
2017-Nov-14 11:30N 33°52' W 120°44'611.1
2017-Nov-14 11:00N 33°49' W 120°39'510.7
2017-Nov-14 10:30N 33°46' W 120°33'510.8
2017-Nov-14 10:00N 33°43' W 120°28'510.7
2017-Nov-14 09:31N 33°40' W 120°22'510.9
2017-Nov-14 09:01N 33°38' W 120°17'510.2
2017-Nov-14 08:30N 33°36' W 120°10'510.7
2017-Nov-14 08:01N 33°37' W 120°04'510.4
2017-Nov-14 07:30N 33°38' W 119°58'511.2
2017-Nov-14 07:00N 33°39' W 119°52'611.4
2017-Nov-14 06:31N 33°41' W 119°45'611.6
2017-Nov-14 06:00N 33°42' W 119°38'611.2
2017-Nov-14 05:30N 33°43' W 119°31'611.6
2017-Nov-14 05:01N 33°44' W 119°25'712.4
2017-Nov-14 04:28N 33°45' W 119°17'612.5
2017-Nov-14 04:00N 33°46' W 119°10'611.5
2017-Nov-14 03:31N 33°47' W 119°03'611.5
2017-Nov-14 03:00N 33°46' W 118°56'611.6
2017-Nov-14 02:30N 33°46' W 118°49'611.7
2017-Nov-14 02:00N 33°48' W 118°42'611.3
2017-Nov-14 01:30N 33°51' W 118°36'611.3
2017-Nov-14 01:00N 33°53' W 118°30'1 0.8
2017-Nov-13 23:31N 33°53' W 118°29'0 0.0
2017-Nov-13 23:19N 33°53' W 118°29'0 0.1
2017-Nov-13 21:31N 33°53' W 118°29'2 0.1
2017-Nov-12 23:28N 33°54' W 118°27'0 0.0
2017-Nov-12 22:52N 33°54' W 118°27'0 0.0
2017-Nov-12 17:00N 33°54' W 118°27'0 0.1
2017-Nov-12 16:30N 33°54' W 118°27'0 0.9
2017-Nov-12 16:00N 33°54' W 118°27'2 2.1
2017-Nov-12 15:13N 33°53' W 118°29'0 0.2
2017-Nov-12 13:52N 33°53' W 118°29'0 0.1
2017-Nov-12 12:43N 33°53' W 118°29'0 0.0
2017-Nov-12 08:55N 33°53' W 118°29'0 0.1
2017-Nov-12 07:37N 33°53' W 118°29'0 0.0
2017-Nov-12 07:25N 33°53' W 118°29'0 0.0
2017-Nov-12 06:55N 33°53' W 118°29'0 0.0
2017-Nov-12 05:28N 33°53' W 118°29'0 0.0
2017-Nov-12 04:28N 33°53' W 118°29'0 0.0
2017-Nov-12 03:55N 33°53' W 118°29'0 0.0
2017-Nov-12 02:46N 33°53' W 118°29'0 0.1
2017-Nov-11 23:55N 33°53' W 118°29'0 0.2
2017-Nov-11 23:30N 33°53' W 118°29'1 1.7
2017-Nov-11 23:00N 33°52' W 118°29'4 6.5
2017-Nov-11 22:27N 33°49' W 118°31'511.6
2017-Nov-11 22:00N 33°45' W 118°34'611.8
2017-Nov-11 21:30N 33°40' W 118°38'611.7
2017-Nov-11 21:00N 33°35' W 118°42'611.4
2017-Nov-11 20:30N 33°30' W 118°44'611.8
2017-Nov-11 20:00N 33°24' W 118°44'611.2
2017-Nov-11 19:30N 33°18' W 118°42'611.7
2017-Nov-11 19:00N 33°13' W 118°38'611.6
2017-Nov-11 18:30N 33°09' W 118°34'1511.5
2017-Nov-11 17:11N 33°09' W 118°16'211.8
2017-Nov-11 16:59N 33°09' W 118°13'611.7
2017-Nov-11 16:30N 33°08' W 118°06'611.6
2017-Nov-11 16:00N 33°07' W 117°60'611.3
2017-Nov-11 15:30N 33°07' W 117°53'3 1.1
2017-Nov-11 12:21N 33°05' W 117°50'0 1.0
2017-Nov-11 11:51N 33°04' W 117°49'0 1.0
2017-Nov-11 11:27N 33°04' W 117°49'1 1.0
2017-Nov-11 10:51N 33°03' W 117°49'0 1.0
2017-Nov-11 10:27N 33°03' W 117°49'0 1.0
2017-Nov-11 09:57N 33°03' W 117°48'0 1.0
2017-Nov-11 09:27N 33°02' W 117°48'1 1.3
2017-Nov-11 08:57N 33°02' W 117°48'1 1.3
2017-Nov-11 08:27N 33°01' W 117°47'0 0.7
2017-Nov-11 07:57N 33°01' W 117°47'0 0.9
2017-Nov-11 07:27N 33°01' W 117°47'1 1.1
2017-Nov-11 06:57N 33°00' W 117°46'0 0.7
2017-Nov-11 06:27N 33°00' W 117°46'0 0.9
2017-Nov-11 05:57N 32°60' W 117°45'1 1.1
2017-Nov-11 05:27N 32°60' W 117°45'0 0.7
2017-Nov-11 04:57N 32°59' W 117°44'0 0.6
2017-Nov-11 04:27N 32°59' W 117°44'0 0.5
2017-Nov-11 03:51N 32°59' W 117°44'0 0.4
2017-Nov-11 03:27N 32°59' W 117°44'0 1.0
2017-Nov-11 02:57N 32°59' W 117°43'1 1.7
2017-Nov-11 02:27N 32°58' W 117°43'1 1.4
2017-Nov-11 01:57N 32°57' W 117°42'1 1.1
2017-Nov-11 01:27N 32°57' W 117°42'0 1.0
2017-Nov-11 00:57N 32°56' W 117°42'1 1.0
2017-Nov-11 00:21N 32°56' W 117°41'0 0.9
2017-Nov-10 23:57N 32°56' W 117°41'3 1.1
2017-Nov-10 21:15N 32°56' W 117°45'0 1.1
2017-Nov-10 20:51N 32°56' W 117°45'1 1.1
2017-Nov-10 20:21N 32°56' W 117°46'1 1.7
2017-Nov-10 19:47N 32°57' W 117°47'1 2.2
2017-Nov-10 19:30N 32°57' W 117°47'2 3.6
2017-Nov-10 19:00N 32°59' W 117°49'2 4.5
2017-Nov-10 18:30N 33°00' W 117°51'2 4.9
2017-Nov-10 18:00N 33°02' W 117°53'3 6.3
2017-Nov-10 17:29N 33°05' W 117°55'1 2.3
2017-Nov-10 17:00N 33°06' W 117°55'1 1.5
2017-Nov-10 16:30N 33°06' W 117°56'1 1.5
2017-Nov-10 16:00N 33°07' W 117°56'1 1.8
2017-Nov-10 15:29N 33°08' W 117°57'2 3.5
2017-Nov-10 15:00N 33°09' W 117°58'3 5.9
2017-Nov-10 14:30N 33°12' W 117°58'2 2.6
2017-Nov-10 13:54N 33°13' W 117°57'1 2.8
2017-Nov-10 13:29N 33°13' W 117°56'2 3.2
2017-Nov-10 13:00N 33°12' W 117°54'1 3.0
2017-Nov-10 12:30N 33°12' W 117°52'1 1.9
2017-Nov-10 12:00N 33°11' W 117°51'0 0.9
2017-Nov-10 11:30N 33°11' W 117°51'0 0.8
2017-Nov-10 11:00N 33°11' W 117°51'1 1.1
2017-Nov-10 10:30N 33°10' W 117°51'1 1.4
2017-Nov-10 10:00N 33°10' W 117°52'1 1.3
2017-Nov-10 09:30N 33°09' W 117°52'1 1.4
2017-Nov-10 09:00N 33°09' W 117°53'1 1.6
2017-Nov-10 08:30N 33°09' W 117°54'1 1.6
2017-Nov-10 08:00N 33°09' W 117°55'1 1.7
2017-Nov-10 07:30N 33°09' W 117°56'1 1.5
2017-Nov-10 07:00N 33°08' W 117°57'1 1.4
2017-Nov-10 06:30N 33°08' W 117°58'1 1.4
2017-Nov-10 06:00N 33°08' W 117°58'1 1.2
2017-Nov-10 05:30N 33°08' W 117°59'1 2.4
2017-Nov-10 05:00N 33°08' W 118°01'2 3.1
2017-Nov-10 04:30N 33°08' W 118°02'1 2.5
2017-Nov-10 04:00N 33°08' W 118°04'1 2.6
2017-Nov-10 03:30N 33°07' W 118°05'1 1.8
2017-Nov-10 03:00N 33°07' W 118°06'1 1.4
2017-Nov-10 02:25N 33°07' W 118°07'1 1.4
2017-Nov-10 02:00N 33°07' W 118°08'1 1.6
2017-Nov-10 01:30N 33°07' W 118°09'1 1.7
2017-Nov-10 01:00N 33°07' W 118°10'1 1.6
2017-Nov-10 00:30N 33°06' W 118°11'1 1.7
2017-Nov-09 23:58N 33°06' W 118°12'1 1.7
2017-Nov-09 23:27N 33°06' W 118°13'1 1.6
2017-Nov-09 22:58N 33°05' W 118°13'1 1.5
2017-Nov-09 22:27N 33°05' W 118°14'1 2.6
2017-Nov-09 22:00N 33°05' W 118°16'2 4.7
2017-Nov-09 21:30N 33°05' W 118°19'2411.4
2017-Nov-09 19:22N 33°14' W 118°46'3 8.0
2017-Nov-09 19:00N 33°14' W 118°49'611.7
2017-Nov-09 18:30N 33°12' W 118°56'612.7
2017-Nov-09 18:00N 33°08' W 119°02'612.8
2017-Nov-09 17:30N 33°05' W 119°08'713.1
2017-Nov-09 17:00N 33°01' W 119°15'713.2
2017-Nov-09 16:30N 32°60' W 119°23'613.1
2017-Nov-09 16:00N 32°59' W 119°30'613.0
2017-Nov-09 15:30N 32°59' W 119°38'712.9
2017-Nov-09 14:59N 33°00' W 119°46'812.8
2017-Nov-09 14:21N 33°02' W 119°55'512.3
2017-Nov-09 13:56N 33°03' W 120°01'1311.6
2017-Nov-09 12:48N 33°12' W 120°13'412.0
2017-Nov-09 12:30N 33°15' W 120°16'612.2
2017-Nov-09 12:00N 33°19' W 120°21'612.4
2017-Nov-09 11:30N 33°24' W 120°26'612.3
2017-Nov-09 11:00N 33°28' W 120°31'611.9
2017-Nov-09 10:30N 33°32' W 120°36'611.8
2017-Nov-09 10:00N 33°37' W 120°41'612.2
2017-Nov-09 09:30N 33°41' W 120°46'612.1
2017-Nov-09 09:00N 33°45' W 120°51'612.2
2017-Nov-09 08:30N 33°50' W 120°55'612.2
2017-Nov-09 08:00N 33°56' W 120°59'612.3
2017-Nov-09 07:30N 34°01' W 121°03'612.1
2017-Nov-09 07:00N 34°06' W 121°06'612.1
2017-Nov-09 06:30N 34°12' W 121°10'612.1
2017-Nov-09 06:00N 34°17' W 121°14'611.8
2017-Nov-09 05:30N 34°22' W 121°17'612.1
2017-Nov-09 05:00N 34°27' W 121°21'612.3
2017-Nov-09 04:30N 34°32' W 121°25'612.1
2017-Nov-09 04:00N 34°38' W 121°29'612.1
2017-Nov-09 03:30N 34°43' W 121°32'612.2
2017-Nov-09 03:00N 34°48' W 121°36'712.1
2017-Nov-09 02:27N 34°54' W 121°40'512.1
2017-Nov-09 02:00N 34°58' W 121°44'612.0
2017-Nov-09 01:30N 35°04' W 121°47'510.9
2017-Nov-09 01:00N 35°08' W 121°51'612.3
2017-Nov-09 00:30N 35°13' W 121°55'3112.1
2017-Nov-08 22:00N 35°40' W 122°14'611.5
2017-Nov-08 21:30N 35°45' W 122°17'  
Track history (hours):
 
Tides and Currents Weather Stations Pressure Air Temp Water Temp Dewpoint Dewpoint Depression Visibility Wind Speed Wind Dir Waves Ship Positions

Pegasus Voyager

Last reported at 2017-Nov-18 21:29 UTC. Time now 2017-Nov-18 21:46 UTC.
Position N 32°59' W 117°49'.

Length 276 m; draft 9.8 m.

Type: Ship (hazmat cat C). MMSI: 311000111.

Date/timePositionNaut miles runAvg speedWind from/ knotsBaromVisibWave heightAir tempDewpointWater temp
2017-Nov-18 21:29N 32°59' W 117°49'0 0.8
2017-Nov-18 20:56N 32°58' W 117°49'1 1.0
2017-Nov-18 20:26N 32°58' W 117°49'0 0.6
2017-Nov-18 19:56N 32°58' W 117°48'0 0.6
2017-Nov-18 19:26N 32°57' W 117°48'0 0.7
2017-Nov-18 18:56N 32°57' W 117°48'1 1.0
2017-Nov-18 18:08N 32°56' W 117°48'0 1.4
2017-Nov-18 17:56N 32°56' W 117°48'1 1.0
2017-Nov-18 17:26N 32°55' W 117°48'0 0.6
2017-Nov-18 16:50N 32°55' W 117°48'3 0.8
2017-Nov-18 13:26N 32°58' W 117°49'1 1.1
2017-Nov-18 12:56N 32°58' W 117°49'1 1.1
2017-Nov-18 12:26N 32°59' W 117°50'0 0.8
2017-Nov-18 11:57N 32°59' W 117°50'0 0.8
2017-Nov-18 11:30N 32°59' W 117°50'0 1.0
2017-Nov-18 11:00N 32°60' W 117°50'0 0.8
2017-Nov-18 10:30N 33°00' W 117°50'0 0.8
2017-Nov-18 10:00N 33°00' W 117°50'0 0.8
2017-Nov-18 09:30N 33°01' W 117°50'0 0.7
2017-Nov-18 09:00N 33°01' W 117°51'1 1.5
2017-Nov-18 08:30N 33°02' W 117°51'1 2.9
2017-Nov-18 08:00N 33°03' W 117°52'2 3.9
2017-Nov-18 07:30N 33°05' W 117°53'2 4.4
2017-Nov-18 07:00N 33°06' W 117°55'2 4.6
2017-Nov-18 06:30N 33°08' W 117°56'2 4.8
2017-Nov-18 06:00N 33°10' W 117°58'1 1.2
2017-Nov-18 05:30N 33°11' W 117°58'0 0.5
2017-Nov-18 05:00N 33°11' W 117°59'3 5.6
2017-Nov-18 04:29N 33°09' W 118°02'511.4
2017-Nov-18 04:00N 33°07' W 118°08'1011.5
2017-Nov-18 03:06N 33°05' W 118°20'611.9
2017-Nov-18 02:38N 33°08' W 118°26'111.5
2017-Nov-18 02:30N 33°08' W 118°28'811.6
2017-Nov-18 01:48N 33°12' W 118°36'411.8
2017-Nov-18 01:26N 33°14' W 118°41'511.5
2017-Nov-18 01:00N 33°14' W 118°47'612.0
2017-Nov-18 00:30N 33°12' W 118°54'815.6
2017-Nov-18 00:00N 33°08' W 119°02'815.8
2017-Nov-17 23:30N 33°04' W 119°10'815.8
2017-Nov-17 23:00N 33°00' W 119°18'816.4
2017-Nov-17 22:30N 32°60' W 119°28'815.9
2017-Nov-17 22:00N 32°59' W 119°37'815.7
2017-Nov-17 21:30N 33°00' W 119°46'815.1
2017-Nov-17 21:00N 33°02' W 119°55'1714.7
2017-Nov-17 19:49N 33°12' W 120°13'515.0
2017-Nov-17 19:27N 33°16' W 120°17'614.0
2017-Nov-17 19:00N 33°20' W 120°22'4 8.0
2017-Nov-17 18:31N 33°23' W 120°25'714.6
2017-Nov-17 18:01N 33°28' W 120°31'714.6
2017-Nov-17 17:30N 33°34' W 120°37'714.8
2017-Nov-17 17:00N 33°39' W 120°44'510.4
2017-Nov-17 16:30N 33°43' W 120°48'713.8
2017-Nov-17 16:01N 33°48' W 120°53'815.5
2017-Nov-17 15:31N 33°55' W 120°58'816.0
2017-Nov-17 15:00N 34°02' W 121°03'816.0
2017-Nov-17 14:30N 34°09' W 121°08'816.0
2017-Nov-17 14:00N 34°15' W 121°13'815.9
2017-Nov-17 13:30N 34°22' W 121°18'815.8
2017-Nov-17 13:00N 34°29' W 121°23'815.8
2017-Nov-17 12:30N 34°36' W 121°27'815.5
2017-Nov-17 12:00N 34°42' W 121°32'815.6
2017-Nov-17 11:30N 34°49' W 121°37'815.8
2017-Nov-17 11:01N 34°56' W 121°42'815.5
2017-Nov-17 10:30N 35°03' W 121°47'815.3
2017-Nov-17 10:00N 35°09' W 121°52'15314.9
2017-Nov-16 23:45N 37°29' W 123°09'312.7
2017-Nov-16 23:30N 37°32' W 123°09'611.4
2017-Nov-16 23:00N 37°35' W 123°03'611.1
2017-Nov-16 22:30N 37°38' W 122°57'510.9
2017-Nov-16 22:00N 37°41' W 122°51'511.1
2017-Nov-16 21:30N 37°43' W 122°45'4 8.7
2017-Nov-16 21:00N 37°45' W 122°40'611.9
2017-Nov-16 20:31N 37°48' W 122°33'713.4
2017-Nov-16 20:00N 37°51' W 122°26'4 8.1
2017-Nov-16 19:31N 37°55' W 122°25'1 0.2
2017-Nov-16 13:40N 37°56' W 122°25'0 0.0
2017-Nov-16 03:01N 37°56' W 122°25'0 0.0
2017-Nov-16 02:04N 37°56' W 122°25'0 0.0
2017-Nov-16 01:55N 37°56' W 122°25'0 0.0
2017-Nov-16 01:25N 37°56' W 122°25'0 0.0
2017-Nov-15 21:45N 37°56' W 122°25'0 0.0
2017-Nov-15 21:30N 37°56' W 122°25'1 2.7
2017-Nov-15 21:00N 37°54' W 122°25'4 7.5
2017-Nov-15 20:30N 37°51' W 122°25'4 7.2
2017-Nov-15 20:01N 37°49' W 122°29'4 7.8
2017-Nov-15 19:31N 37°47' W 122°34'611.2
2017-Nov-15 19:00N 37°45' W 122°40'5 9.2
2017-Nov-15 18:30N 37°42' W 122°45'4 9.0
2017-Nov-15 18:00N 37°39' W 122°49'4 9.0
2017-Nov-15 17:30N 37°37' W 122°54'5 9.0
2017-Nov-15 17:00N 37°34' W 122°59'5 9.0
2017-Nov-15 16:30N 37°32' W 123°03'4 8.9
2017-Nov-15 16:01N 37°29' W 123°08'4 9.0
2017-Nov-15 15:30N 37°27' W 123°13'4 8.1
2017-Nov-15 15:00N 37°24' W 123°17'3 6.1
2017-Nov-15 14:30N 37°23' W 123°20'53 9.9
2017-Nov-15 09:06N 36°30' W 123°09'1210.3
2017-Nov-15 07:57N 36°19' W 123°03'510.3
2017-Nov-15 07:27N 36°15' W 123°00'1310.2
2017-Nov-15 06:12N 36°03' W 122°53'210.0
2017-Nov-15 05:59N 36°01' W 122°52'4 7.5
2017-Nov-15 05:31N 35°58' W 122°50'3 6.1
2017-Nov-15 05:00N 35°55' W 122°49'611.2
2017-Nov-15 04:30N 35°50' W 122°46'611.0
2017-Nov-15 04:01N 35°45' W 122°43'611.4
2017-Nov-15 03:30N 35°40' W 122°39'610.9
2017-Nov-15 02:59N 35°35' W 122°36'510.9
2017-Nov-15 02:30N 35°31' W 122°32'1610.7
2017-Nov-15 01:01N 35°18' W 122°21'011.5
2017-Nov-15 01:00N 35°18' W 122°21'4 8.5
2017-Nov-15 00:31N 35°15' W 122°17'611.6
2017-Nov-15 00:00N 35°12' W 122°10'1611.6
2017-Nov-14 22:37N 35°05' W 121°53'111.7
2017-Nov-14 22:30N 35°04' W 121°52'611.8
2017-Nov-14 22:00N 35°01' W 121°45'611.7
2017-Nov-14 21:31N 34°58' W 121°39'611.9
2017-Nov-14 21:01N 34°56' W 121°33'712.6
2017-Nov-14 20:29N 34°53' W 121°26'612.5
2017-Nov-14 20:00N 34°49' W 121°19'612.7
2017-Nov-14 19:31N 34°46' W 121°13'612.3
2017-Nov-14 19:00N 34°42' W 121°07'511.1
2017-Nov-14 18:30N 34°38' W 121°02'510.8
2017-Nov-14 18:00N 34°35' W 120°57'5 9.5
2017-Nov-14 17:30N 34°31' W 120°54'611.1
2017-Nov-14 16:59N 34°27' W 120°60'5 9.6
2017-Nov-14 16:28N 34°25' W 121°05'612.4
2017-Nov-14 15:58N 34°22' W 121°11'612.0
2017-Nov-14 15:30N 34°19' W 121°17'511.1
2017-Nov-14 15:00N 34°14' W 121°20'5 9.2
2017-Nov-14 14:31N 34°09' W 121°19'510.9
2017-Nov-14 14:00N 34°07' W 121°13'611.4
2017-Nov-14 13:31N 34°04' W 121°07'611.2
2017-Nov-14 13:01N 34°01' W 121°02'611.3
2017-Nov-14 12:30N 33°58' W 120°56'611.4
2017-Nov-14 12:01N 33°55' W 120°50'611.1
2017-Nov-14 11:30N 33°52' W 120°44'611.1
2017-Nov-14 11:00N 33°49' W 120°39'510.7
2017-Nov-14 10:30N 33°46' W 120°33'510.8
2017-Nov-14 10:00N 33°43' W 120°28'510.7
2017-Nov-14 09:31N 33°40' W 120°22'510.9
2017-Nov-14 09:01N 33°38' W 120°17'510.2
2017-Nov-14 08:30N 33°36' W 120°10'510.7
2017-Nov-14 08:01N 33°37' W 120°04'510.4
2017-Nov-14 07:30N 33°38' W 119°58'511.2
2017-Nov-14 07:00N 33°39' W 119°52'611.4
2017-Nov-14 06:31N 33°41' W 119°45'611.6
2017-Nov-14 06:00N 33°42' W 119°38'611.2
2017-Nov-14 05:30N 33°43' W 119°31'611.6
2017-Nov-14 05:01N 33°44' W 119°25'712.4
2017-Nov-14 04:28N 33°45' W 119°17'612.5
2017-Nov-14 04:00N 33°46' W 119°10'611.5
2017-Nov-14 03:31N 33°47' W 119°03'611.5
2017-Nov-14 03:00N 33°46' W 118°56'611.6
2017-Nov-14 02:30N 33°46' W 118°49'611.7
2017-Nov-14 02:00N 33°48' W 118°42'611.3
2017-Nov-14 01:30N 33°51' W 118°36'611.3
2017-Nov-14 01:00N 33°53' W 118°30'1 0.8
2017-Nov-13 23:31N 33°53' W 118°29'0 0.0
2017-Nov-13 23:19N 33°53' W 118°29'0 0.1
2017-Nov-13 21:31N 33°53' W 118°29'2 0.1
2017-Nov-12 23:28N 33°54' W 118°27'0 0.0
2017-Nov-12 22:52N 33°54' W 118°27'0 0.0
2017-Nov-12 17:00N 33°54' W 118°27'0 0.1
2017-Nov-12 16:30N 33°54' W 118°27'0 0.9
2017-Nov-12 16:00N 33°54' W 118°27'2 2.1
2017-Nov-12 15:13N 33°53' W 118°29'0 0.2
2017-Nov-12 13:52N 33°53' W 118°29'0 0.1
2017-Nov-12 12:43N 33°53' W 118°29'0 0.0
2017-Nov-12 08:55N 33°53' W 118°29'0 0.1
2017-Nov-12 07:37N 33°53' W 118°29'0 0.0
2017-Nov-12 07:25N 33°53' W 118°29'0 0.0
2017-Nov-12 06:55N 33°53' W 118°29'0 0.0
2017-Nov-12 05:28N 33°53' W 118°29'0 0.0
2017-Nov-12 04:28N 33°53' W 118°29'0 0.0
2017-Nov-12 03:55N 33°53' W 118°29'0 0.0
2017-Nov-12 02:46N 33°53' W 118°29'0 0.1
2017-Nov-11 23:55N 33°53' W 118°29'0 0.2
2017-Nov-11 23:30N 33°53' W 118°29'1 1.7
2017-Nov-11 23:00N 33°52' W 118°29'4 6.5
2017-Nov-11 22:27N 33°49' W 118°31'511.6
2017-Nov-11 22:00N 33°45' W 118°34'611.8
2017-Nov-11 21:30N 33°40' W 118°38'611.7
2017-Nov-11 21:00N 33°35' W 118°42'611.4
2017-Nov-11 20:30N 33°30' W 118°44'611.8
2017-Nov-11 20:00N 33°24' W 118°44'611.2
2017-Nov-11 19:30N 33°18' W 118°42'611.7
2017-Nov-11 19:00N 33°13' W 118°38'611.6
2017-Nov-11 18:30N 33°09' W 118°34'1511.5
2017-Nov-11 17:11N 33°09' W 118°16'211.8
2017-Nov-11 16:59N 33°09' W 118°13'611.7
2017-Nov-11 16:30N 33°08' W 118°06'611.6
2017-Nov-11 16:00N 33°07' W 117°60'611.3
2017-Nov-11 15:30N 33°07' W 117°53'3 1.1
2017-Nov-11 12:21N 33°05' W 117°50'0 1.0
2017-Nov-11 11:51N 33°04' W 117°49'0 1.0
2017-Nov-11 11:27N 33°04' W 117°49'1 1.0
2017-Nov-11 10:51N 33°03' W 117°49'0 1.0
2017-Nov-11 10:27N 33°03' W 117°49'0 1.0
2017-Nov-11 09:57N 33°03' W 117°48'0 1.0
2017-Nov-11 09:27N 33°02' W 117°48'1 1.3
2017-Nov-11 08:57N 33°02' W 117°48'1 1.3
2017-Nov-11 08:27N 33°01' W 117°47'0 0.7
2017-Nov-11 07:57N 33°01' W 117°47'0 0.9
2017-Nov-11 07:27N 33°01' W 117°47'1 1.1
2017-Nov-11 06:57N 33°00' W 117°46'0 0.7
2017-Nov-11 06:27N 33°00' W 117°46'0 0.9
2017-Nov-11 05:57N 32°60' W 117°45'1 1.1
2017-Nov-11 05:27N 32°60' W 117°45'0 0.7
2017-Nov-11 04:57N 32°59' W 117°44'0 0.6
2017-Nov-11 04:27N 32°59' W 117°44'0 0.5
2017-Nov-11 03:51N 32°59' W 117°44'0 0.4
2017-Nov-11 03:27N 32°59' W 117°44'0 1.0
2017-Nov-11 02:57N 32°59' W 117°43'1 1.7
2017-Nov-11 02:27N 32°58' W 117°43'1 1.4
2017-Nov-11 01:57N 32°57' W 117°42'1 1.1
2017-Nov-11 01:27N 32°57' W 117°42'0 1.0
2017-Nov-11 00:57N 32°56' W 117°42'1 1.0
2017-Nov-11 00:21N 32°56' W 117°41'0 0.9
2017-Nov-10 23:57N 32°56' W 117°41'3 1.1
2017-Nov-10 21:15N 32°56' W 117°45'0 1.1
2017-Nov-10 20:51N 32°56' W 117°45'1 1.1
2017-Nov-10 20:21N 32°56' W 117°46'1 1.7
2017-Nov-10 19:47N 32°57' W 117°47'1 2.2
2017-Nov-10 19:30N 32°57' W 117°47'2 3.6
2017-Nov-10 19:00N 32°59' W 117°49'2 4.5
2017-Nov-10 18:30N 33°00' W 117°51'2 4.9
2017-Nov-10 18:00N 33°02' W 117°53'3 6.3
2017-Nov-10 17:29N 33°05' W 117°55'1 2.3
2017-Nov-10 17:00N 33°06' W 117°55'1 1.5
2017-Nov-10 16:30N 33°06' W 117°56'1 1.5
2017-Nov-10 16:00N 33°07' W 117°56'1 1.8
2017-Nov-10 15:29N 33°08' W 117°57'2 3.5
2017-Nov-10 15:00N 33°09' W 117°58'3 5.9
2017-Nov-10 14:30N 33°12' W 117°58'2 2.6
2017-Nov-10 13:54N 33°13' W 117°57'1 2.8
2017-Nov-10 13:29N 33°13' W 117°56'2 3.2
2017-Nov-10 13:00N 33°12' W 117°54'1 3.0
2017-Nov-10 12:30N 33°12' W 117°52'1 1.9
2017-Nov-10 12:00N 33°11' W 117°51'0 0.9
2017-Nov-10 11:30N 33°11' W 117°51'0 0.8
2017-Nov-10 11:00N 33°11' W 117°51'1 1.1
2017-Nov-10 10:30N 33°10' W 117°51'1 1.4
2017-Nov-10 10:00N 33°10' W 117°52'1 1.3
2017-Nov-10 09:30N 33°09' W 117°52'1 1.4
2017-Nov-10 09:00N 33°09' W 117°53'1 1.6
2017-Nov-10 08:30N 33°09' W 117°54'1 1.6
2017-Nov-10 08:00N 33°09' W 117°55'1 1.7
2017-Nov-10 07:30N 33°09' W 117°56'1 1.5
2017-Nov-10 07:00N 33°08' W 117°57'1 1.4
2017-Nov-10 06:30N 33°08' W 117°58'1 1.4
2017-Nov-10 06:00N 33°08' W 117°58'1 1.2
2017-Nov-10 05:30N 33°08' W 117°59'1 2.4
2017-Nov-10 05:00N 33°08' W 118°01'2 3.1
2017-Nov-10 04:30N 33°08' W 118°02'1 2.5
2017-Nov-10 04:00N 33°08' W 118°04'1 2.6
2017-Nov-10 03:30N 33°07' W 118°05'1 1.8
2017-Nov-10 03:00N 33°07' W 118°06'1 1.4
2017-Nov-10 02:25N 33°07' W 118°07'1 1.4
2017-Nov-10 02:00N 33°07' W 118°08'1 1.6
2017-Nov-10 01:30N 33°07' W 118°09'1 1.7
2017-Nov-10 01:00N 33°07' W 118°10'1 1.6
2017-Nov-10 00:30N 33°06' W 118°11'1 1.7
2017-Nov-09 23:58N 33°06' W 118°12'1 1.7
2017-Nov-09 23:27N 33°06' W 118°13'1 1.6
2017-Nov-09 22:58N 33°05' W 118°13'1 1.5
2017-Nov-09 22:27N 33°05' W 118°14'1 2.6
2017-Nov-09 22:00N 33°05' W 118°16'2 4.7
2017-Nov-09 21:30N 33°05' W 118°19'2411.4
2017-Nov-09 19:22N 33°14' W 118°46'3 8.0
2017-Nov-09 19:00N 33°14' W 118°49'611.7
2017-Nov-09 18:30N 33°12' W 118°56'612.7
2017-Nov-09 18:00N 33°08' W 119°02'612.8
2017-Nov-09 17:30N 33°05' W 119°08'713.1
2017-Nov-09 17:00N 33°01' W 119°15'713.2
2017-Nov-09 16:30N 32°60' W 119°23'613.1
2017-Nov-09 16:00N 32°59' W 119°30'613.0
2017-Nov-09 15:30N 32°59' W 119°38'712.9
2017-Nov-09 14:59N 33°00' W 119°46'812.8
2017-Nov-09 14:21N 33°02' W 119°55'512.3
2017-Nov-09 13:56N 33°03' W 120°01'1311.6
2017-Nov-09 12:48N 33°12' W 120°13'412.0
2017-Nov-09 12:30N 33°15' W 120°16'612.2
2017-Nov-09 12:00N 33°19' W 120°21'612.4
2017-Nov-09 11:30N 33°24' W 120°26'612.3
2017-Nov-09 11:00N 33°28' W 120°31'611.9
2017-Nov-09 10:30N 33°32' W 120°36'611.8
2017-Nov-09 10:00N 33°37' W 120°41'612.2
2017-Nov-09 09:30N 33°41' W 120°46'612.1
2017-Nov-09 09:00N 33°45' W 120°51'612.2
2017-Nov-09 08:30N 33°50' W 120°55'612.2
2017-Nov-09 08:00N 33°56' W 120°59'612.3
2017-Nov-09 07:30N 34°01' W 121°03'612.1
2017-Nov-09 07:00N 34°06' W 121°06'612.1
2017-Nov-09 06:30N 34°12' W 121°10'612.1
2017-Nov-09 06:00N 34°17' W 121°14'611.8
2017-Nov-09 05:30N 34°22' W 121°17'612.1
2017-Nov-09 05:00N 34°27' W 121°21'612.3
2017-Nov-09 04:30N 34°32' W 121°25'612.1
2017-Nov-09 04:00N 34°38' W 121°29'612.1
2017-Nov-09 03:30N 34°43' W 121°32'612.2
2017-Nov-09 03:00N 34°48' W 121°36'712.1
2017-Nov-09 02:27N 34°54' W 121°40'512.1
2017-Nov-09 02:00N 34°58' W 121°44'612.0
2017-Nov-09 01:30N 35°04' W 121°47'510.9
2017-Nov-09 01:00N 35°08' W 121°51'612.3
2017-Nov-09 00:30N 35°13' W 121°55'3112.1
2017-Nov-08 22:00N 35°40' W 122°14'611.5
2017-Nov-08 21:30N 35°45' W 122°17'  

Dump ship's entire track history